RH
32 32 28 26 26 27 27 26 28 30 36 38 41 42 41 40 41 42 42 44 41 35 33 32 31 30 26 22 17 21 18 15 15 17 23 27 31 32 33 36 42 39 38 38 48 46 62
37 35 34 29 28 24 24 25 25 25 25 29 36 40 41 42 42 41 40 42 43 38 36 34 33 32 28 23 20 23 18 17 18 19 23 28 33 34 36 38 40 41 40 38 44 56 63
33 37 36 34 30 30 28 24 24 24 24 23 26 33 38 42 42 39 39 39 43 39 37 35 34 33 29 22 20 26 20 18 19 22 22 26 33 34 38 41 38 42 42 45 46 57 63
24 24 27 32 32 29 30 28 26 23 24 23 24 24 29 35 38 39 38 39 45 43 37 36 36 35 29 22 20 26 22 20 20 22 25 28 32 33 37 40 40 40 47 51 54 55 60
17 17 19 21 24 28 30 29 27 25 22 22 23 24 23 29 35 34 37 37 41 43 41 41 38 36 29 22 19 24 23 23 25 28 29 31 33 32 35 40 42 43 43 50 57 56 57
19 18 17 17 17 19 23 25 26 26 23 22 22 23 22 28 36 34 37 35 37 36 37 42 43 39 30 23 19 22 23 22 25 30 31 32 32 33 36 39 45 43 46 47 49 47 52
24 23 20 19 18 18 19 19 22 23 24 21 22 24 24 28 38 41 48 46 45 42 42 37 44 37 29 24 23 22 24 24 26 29 31 32 30 33 35 38 42 41 45 45 46 46 49
27 30 27 22 20 22 24 25 18 21 22 21 18 23 26 30 38 40 47 50 53 52 50 42 40 40 35 26 26 24 25 24 26 29 32 34 34 37 39 39 44 45 45 45 45 44 47
25 28 32 30 24 19 26 27 27 17 20 22 19 20 25 30 40 45 45 49 50 54 53 41 35 35 33 30 27 23 25 24 26 30 32 35 35 37 40 44 45 46 49 48 45 44 48
34 31 31 33 31 29 20 25 27 28 19 21 23 22 24 29 36 41 48 46 50 53 46 33 35 36 35 31 29 21 24 24 27 30 31 34 35 36 41 43 50 47 44 49 47 43 40
42 39 38 37 36 35 32 23 24 29 28 21 21 23 20 28 40 43 53 52 54 54 53 36 36 39 35 31 28 29 25 25 27 28 29 32 37 37 42 42 45 47 47 47 47 44 42
56 52 46 42 42 39 38 34 24 25 36 29 24 23 22 20 26 33 52 62 59 65 56 37 43 42 43 37 35 32 25 26 28 31 29 33 35 38 37 40 42 45 49 47 49 43 46
63 63 65 62 56 53 49 43 35 27 29 40 31 26 24 20 24 25 46 68 71 73 41 41 47 48 45 40 44 32 26 27 29 34 31 32 34 38 42 42 42 43 48 53 50 50 47
63 65 65 65 65 64 64 53 47 36 29 42 41 32 30 22 26 24 46 72 78 53 48 49 51 51 49 43 45 30 27 29 29 30 33 33 38 37 42 44 43 46 50 55 52 51 44
68 69 69 70 69 68 68 68 56 49 38 41 45 43 36 28 33 28 50 63 45 53 50 53 49 55 50 39 30 29 30 28 30 29 32 37 36 40 46 48 46 49 53 50 55 60 54
79 79 79 77 76 78 79 78 72 60 48 53 49 47 41 34 35 37 49 52 47 42 44 53 60 54 57 42 32 30 32 28 30 30 30 33 35 43 49 51 51 51 52 52 50 52 51
86 87 87 87 86 84 85 88 84 70 56 64 62 48 39 43 44 51 50 43 44 46 42 54 61 68 57 50 37 32 32 29 29 30 29 31 33 40 50 53 51 55 55 54 48 51 49
88 93 93 96 95 95 94 91 93 85 72 76 77 50 37 41 60 55 44 40 40 36 41 52 56 72 63 58 49 40 34 31 29 28 29 32 38 44 44 50 51 52 51 55 58 49 51
68 83 98 98 98 99 99 98 98 95 83 84 80 55 41 42 58 49 44 42 36 38 40 49 48 68 67 63 55 47 39 34 32 29 31 34 39 44 41 46 50 52 52 52 51 49 49
64 73 82 92 98 99 99 98 99 96 89 90 86 76 63 48 38 40 51 49 47 34 42 47 43 67 67 66 63 52 44 40 32 34 38 39 40 39 37 37 44 49 45 48 48 48 49
88 75 67 73 92 99 98 98 99 98 94 94 90 80 56 51 54 44 41 41 44 38 44 43 40 56 58 70 70 62 50 46 40 40 43 45 45 44 39 37 40 36 40 43 44 44 47
92 90 80 78 72 97 99 99 99 98 94 99 91 71 62 33 35 49 51 47 45 38 34 50 41 45 31 58 72 67 58 51 51 51 52 50 46 44 46 46 41 39 36 37 43 46 43
97 91 88 94 66 87 98 98 99 99 97 94 78 61 56 42 47 53 45 48 52 38 33 39 43 46 34 32 63 69 63 55 54 55 57 56 54 51 50 52 51 49 43 45 49 45 38
96 94 90 97 81 71 95 99 98 98 88 79 77 68 62 62 46 43 48 47 46 39 32 40 45 52 34 32 60 68 66 61 60 58 56 58 57 57 61 54 60 38 47 49 47 36 32
89 87 94 98 85 77 94 99 98 97 92 89 79 67 66 68 48 45 54 51 49 41 39 31 40 50 43 41 57 63 72 66 64 62 58 54 57 64 69 59 44 38 42 41 41 27 31
94 91 99 97 78 82 91 98 99 96 97 87 77 74 67 72 61 44 51 56 47 45 42 36 41 45 56 58 56 66 72 73 73 69 63 58 59 59 65 62 55 40 37 39 37 30 29
98 96 96 91 82 82 95 97 98 95 97 90 83 76 77 77 73 56 52 56 49 47 42 38 35 54 53 64 66 59 66 66 81 76 67 66 65 62 59 59 51 43 44 43 44 25 29
95 95 97 80 73 87 96 98 96 94 97 93 94 80 74 79 74 75 63 55 50 42 40 38 42 48 56 64 62 58 64 70 82 76 68 63 67 69 62 66 60 44 46 40 30 24 31
96 89 86 77 82 96 98 98 97 97 98 97 96 73 63 72 89 84 66 63 60 38 31 32 27 31 37 51 51 55 64 70 75 74 65 69 60 61 57 48 44 40 33 33 25 25 32